Bowling Green, Kentucky, United States (42101)
Lat: 36.99N, Lon: 86.44W
Wx Zone: KYZ071
Local Info
Past Weather Observations for Thursday, July 17, 2014

NOTE: This archive is for the closest National Weather Service station to Bowling Green. Information may differ from the station used for current weather conditions.

Click here for Long-term Archive

Time Weather Temperature Dewpoint Humidity Pressure Winds Precip Visibility
23:55
Clear
57°F / 14°C 55°F / 13°C 94% 30.04 in
(1017 mb)
Calm - 10SM
23:35
Clear
57°F / 14°C 55°F / 13°C 94% 30.04 in
(1017 mb)
Calm - 10SM
23:15
Clear
57°F / 14°C 55°F / 13°C 94% 30.04 in
(1017 mb)
Calm - 10SM
22:55
Clear
59°F / 15°C 54°F / 12°C 82% 30.06 in
(1018 mb)
Calm - 10SM
22:35
Clear
59°F / 15°C 54°F / 12°C 82% 30.06 in
(1018 mb)
Calm - 10SM
22:15
Clear
61°F / 16°C 55°F / 13°C 83% 30.04 in
(1017 mb)
Calm - 10SM
21:55
Mostly Cloudy
61°F / 16°C 55°F / 13°C 83% 30.04 in
(1017 mb)
Calm - 10SM
21:35
Mostly Cloudy
61°F / 16°C 55°F / 13°C 83% 30.04 in
(1017 mb)
Calm - 10SM
21:15
Overcast
61°F / 16°C 55°F / 13°C 83% 30.04 in
(1017 mb)
Calm - 10SM
20:55
Mostly Cloudy
63°F / 17°C 54°F / 12°C 73% 30.04 in
(1017 mb)
Calm - 10SM
20:35
Partly Cloudy
63°F / 17°C 54°F / 12°C 73% 30.04 in
(1017 mb)
Calm - 10SM
20:15
Mostly Cloudy
64°F / 18°C 54°F / 12°C 68% 30.04 in
(1017 mb)
Calm - 10SM
19:55
Overcast
64°F / 18°C 54°F / 12°C 68% 30.01 in
(1016 mb)
Calm - 10SM
19:35
Mostly Cloudy
66°F / 19°C 54°F / 12°C 64% 30.01 in
(1016 mb)
Calm - 10SM
19:15
Partly Cloudy
66°F / 19°C 54°F / 12°C 64% 30.01 in
(1016 mb)
Calm - 10SM
18:55
Partly Cloudy
68°F / 20°C 52°F / 11°C 56% 30.01 in
(1016 mb)
Calm - 10SM
18:35
Partly Cloudy
70°F / 21°C 50°F / 10°C 50% 30.01 in
(1016 mb)
Calm - 10SM
18:15
Mostly Cloudy
73°F / 23°C 52°F / 11°C 47% 30.01 in
(1016 mb)
NW 3.5 mph
(NW 6 kph)
- 10SM
17:55
Partly Cloudy
73°F / 23°C 52°F / 11°C 47% 30.01 in
(1016 mb)
Calm - 10SM
17:35
Clear
73°F / 23°C 50°F / 10°C 44% 30.01 in
(1016 mb)
Calm - 10SM
17:15
Clear
73°F / 23°C 48°F / 9°C 41% 30.01 in
(1016 mb)
Calm - 10SM
16:55
Partly Cloudy
75°F / 24°C 46°F / 8°C 36% 29.98 in
(1015 mb)
Calm - 10SM
16:35
Partly Cloudy
77°F / 25°C 46°F / 8°C 34% 29.98 in
(1015 mb)
Calm - 10SM
16:15
Mostly Cloudy
75°F / 24°C 46°F / 8°C 36% 30.01 in
(1016 mb)
Calm - 10SM
15:55
Overcast
75°F / 24°C 48°F / 9°C 39% 30.01 in
(1016 mb)
Calm - 10SM
15:35
Overcast
77°F / 25°C 48°F / 9°C 36% 30.01 in
(1016 mb)
NW 4.6 mph
(NW 7 kph)
- 10SM
15:15
Mostly Cloudy
77°F / 25°C 50°F / 10°C 39% 30.01 in
(1016 mb)
NW 5.8 mph
(NW 9 kph)
- 10SM
14:55
Partly Cloudy
77°F / 25°C 48°F / 9°C 36% 30.01 in
(1016 mb)
NNW 3.5 mph
(NNW 6 kph)
- 10SM
14:35
Partly Cloudy
77°F / 25°C 50°F / 10°C 39% 30.01 in
(1016 mb)
NNW 6.9 mph
(NNW 11 kph)
- 10SM
14:15
Partly Cloudy
75°F / 24°C 50°F / 10°C 41% 30.01 in
(1016 mb)
Calm - 10SM
13:55
Partly Cloudy
75°F / 24°C 50°F / 10°C 41% 30.01 in
(1016 mb)
N 5.8 mph
(N 9 kph)
- 10SM
13:35
Mostly Cloudy
75°F / 24°C 52°F / 11°C 44% 30.01 in
(1016 mb)
N 5.8 mph
(N 9 kph)
- 10SM
13:15
Mostly Cloudy
75°F / 24°C 50°F / 10°C 41% 30.01 in
(1016 mb)
N 6.9 mph
(N 11 kph)
- 10SM
12:55
Mostly Cloudy
75°F / 24°C 52°F / 11°C 44% 30.04 in
(1017 mb)
NNW 5.8 mph
(NNW 9 kph)
- 10SM
12:35
Overcast
73°F / 23°C 52°F / 11°C 47% 30.04 in
(1017 mb)
Calm - 10SM
12:15
Mostly Cloudy
73°F / 23°C 50°F / 10°C 44% 30.04 in
(1017 mb)
Calm - 10SM
11:55
Partly Cloudy
75°F / 24°C 50°F / 10°C 41% 30.04 in
(1017 mb)
NNW 5.8 mph
(NNW 9 kph)
- 10SM
11:35
Partly Cloudy
73°F / 23°C 50°F / 10°C 44% 30.04 in
(1017 mb)
NW 8.1 mph
(NW 13 kph)
- 10SM
11:15
Mostly Cloudy
72°F / 22°C 50°F / 10°C 47% 30.04 in
(1017 mb)
Calm - 10SM
10:55
Mostly Cloudy
72°F / 22°C 50°F / 10°C 47% 30.04 in
(1017 mb)
NNW 3.5 mph
(NNW 6 kph)
- 10SM
10:35
Mostly Cloudy
72°F / 22°C 52°F / 11°C 50% 30.04 in
(1017 mb)
WNW 4.6 mph
(WNW 7 kph)
- 10SM
10:15
Mostly Cloudy
70°F / 21°C 52°F / 11°C 53% 30.04 in
(1017 mb)
N 3.5 mph
(N 6 kph)
- 10SM
09:55
Overcast
70°F / 21°C 52°F / 11°C 53% 30.04 in
(1017 mb)
NNW 6.9 mph
(NNW 11 kph)
- 10SM
09:35
Mostly Cloudy
70°F / 21°C 52°F / 11°C 53% 30.04 in
(1017 mb)
NNW 5.8 mph
(NNW 9 kph)
- 10SM
09:15
Partly Cloudy
70°F / 21°C 52°F / 11°C 53% 30.04 in
(1017 mb)
Calm - 10SM
08:55
Clear
68°F / 20°C 52°F / 11°C 56% 30.04 in
(1017 mb)
N 4.6 mph
(N 7 kph)
- 10SM
08:35
Clear
68°F / 20°C 52°F / 11°C 56% 30.04 in
(1017 mb)
ENE 3.5 mph
(ENE 6 kph)
- 10SM
08:15
Clear
66°F / 19°C 54°F / 12°C 64% 30.04 in
(1017 mb)
N 3.5 mph
(N 6 kph)
- 10SM
07:35
Clear
64°F / 18°C 55°F / 13°C 73% 30.04 in
(1017 mb)
Calm - 10SM
07:15
Clear
63°F / 17°C 54°F / 12°C 73% 30.04 in
(1017 mb)
N 4.6 mph
(N 7 kph)
- 10SM
06:55
Clear
63°F / 17°C 55°F / 13°C 77% 30.04 in
(1017 mb)
NNW 4.6 mph
(NNW 7 kph)
- 10SM
06:35
Clear
59°F / 15°C 55°F / 13°C 88% 30.04 in
(1017 mb)
Calm - 10SM
06:15
Clear
57°F / 14°C 55°F / 13°C 94% 30.04 in
(1017 mb)
Calm - 10SM
05:55
Clear
54°F / 12°C 54°F / 12°C 100% 30.04 in
(1017 mb)
Calm - 10SM
05:35
Clear
52°F / 11°C 52°F / 11°C 100% 30.04 in
(1017 mb)
Calm - 10SM
05:15
Clear
52°F / 11°C 52°F / 11°C 100% 30.04 in
(1017 mb)
Calm - 7SM
04:55
Clear
52°F / 11°C 52°F / 11°C 100% 30.01 in
(1016 mb)
Calm - 7SM
04:35
Clear
52°F / 11°C 52°F / 11°C 100% 30.01 in
(1016 mb)
Calm - 10SM
04:15
Clear
52°F / 11°C 52°F / 11°C 100% 30.01 in
(1016 mb)
Calm - 10SM
03:55
Clear
52°F / 11°C 52°F / 11°C 100% 30.01 in
(1016 mb)
Calm - 10SM
03:35
Clear
52°F / 11°C 52°F / 11°C 100% 30.01 in
(1016 mb)
Calm - 10SM
03:15
Clear
52°F / 11°C 52°F / 11°C 100% 30.01 in
(1016 mb)
Calm - 10SM
02:55
Clear
52°F / 11°C 52°F / 11°C 100% 30.01 in
(1016 mb)
Calm - 10SM
02:35
Clear
54°F / 12°C 54°F / 12°C 100% 29.98 in
(1015 mb)
Calm - 10SM
02:15
Clear
54°F / 12°C 54°F / 12°C 100% 29.98 in
(1015 mb)
Calm - 10SM
01:55
Clear
54°F / 12°C 54°F / 12°C 100% 29.98 in
(1015 mb)
Calm - 10SM
01:35
Clear
54°F / 12°C 54°F / 12°C 100% 29.98 in
(1015 mb)
Calm - 10SM
01:15
Clear
54°F / 12°C 54°F / 12°C 100% 29.98 in
(1015 mb)
Calm - 10SM
00:55
Clear
55°F / 13°C 52°F / 11°C 88% 29.98 in
(1015 mb)
Calm - 10SM
00:35
Clear
55°F / 13°C 52°F / 11°C 88% 30.01 in
(1016 mb)
Calm - 10SM
00:15
Clear
55°F / 13°C 52°F / 11°C 88% 30.01 in
(1016 mb)
Calm - 10SM
Time Weather Temperature Dewpoint Humidity Pressure Winds Precip Visibility


Weather for websites

WeatherForYou.com, LLC is not responsible for any damages or problems caused by this service. Current weather conditions are obtained from the closest station including government and personal stations which may have varying degrees of accuracy. Weather forecasts are derived from the NOAA NDFD. Like all things, this site belongs to Jesus Christ... He just trusts me to maintain it. If you have any questions or comments email webmaster@weatherforyou.com

Copyright © 2014, WeatherForYou.com LLC. All rights reserved.